{"data":{"norad_id":65859,"epoch":"2026-09-20T04:23:14.781408Z","epoch_age_seconds":133471,"freshness":"FRESH","line1":"1 65859U 25223F   26263.18280997  .00016925  00000+0  51101-3 0  9993","line2":"2 65859  53.1572 107.2184 0001476  73.8738 286.2427 15.34394448 54033","mean_motion":15.34394448,"eccentricity":0.0001476,"inclination_deg":53.1572,"raan_deg":107.2184,"arg_perigee_deg":73.8738,"mean_anomaly_deg":286.2427,"bstar":0.00051101,"rev_number":5403,"period_min":93.848097656829,"perigee_km":461.71003151578,"apogee_km":463.72945242601,"semimajor_km":6840.8567419709,"source":"CELESTRAK","updated_at":"2026-09-21T09:00:35.726164Z"}}